Other Public Products
Issued by NWS Charleston, SC

Current Version | Previous Version | Graphics & Text | Print | Product List | Glossary On
Versions: 1 2 3 4 5 6 7 8 9 10 11 12 13 14 15 16 17 18 19 20 21 22 23 24 25 26 27 28 29 30 31 32 33 34 35 36 37 38 39 40 41 42 43 44 45 46 47 48 49 50
000
FPUS82 KCHS 211812
OPUCHS

TEST...KCHS/KSAV Gateway Observations...TEST
National Weather Service Charleston SC
200 PM EDT SAT APR 21 2018

NOTE: "fair" indicates few or no clouds below 12,000 feet with no
significant weather and/or obstructions to visibility.

SCZ050-WAZ558-NCZ071-TXZ119-213-PAZ071-DCZ001-FLZ074-172-MI076-
NYZ176-178-MAZ016-IL014-TNZ027-NJZ106-GAZ044-MD014-211900-

...Gateway Observations for Charleston International...

CITY           SKY/WX    TMP DP  RH WIND       PRES   REMARKS
Chas Airport   FAIR      70  49  47 E13       30.34F
6HR MIN TEMP:  53; 6HR MAX TEMP:  72;

Seattle        MOSUNNY   52  37  56 S15       30.39R
6HR MIN TEMP:  45; 6HR MAX TEMP:  52;

Charlotte      FAIR      67  33  28 S9        30.37F
6HR MIN TEMP:  48; 6HR MAX TEMP:  68;

Dallas DFW     LGT RAIN  59  58  96 S10       29.95S FOG
6HR MIN TEMP:  55; 6HR MAX TEMP:  62; 6HR PCP:  0.11;

Dallas Love    LGT RAIN  61  58  90 S12       29.96F
6HR MIN TEMP:  56; 6HR MAX TEMP:  65; 6HR PCP:  0.02;

Philladelphia  PTSUNNY   56  24  29 W7        30.38F
6HR MIN TEMP:  42; 6HR MAX TEMP:  57;

Wash National  PTSUNNY   59  28  30 NE7       30.40F
6HR MIN TEMP:  45; 6HR MAX TEMP:  59;

Baltimore      PTSUNNY   58  25  28 MISG      30.39F
6HR MIN TEMP:  40; 6HR MAX TEMP:  58;

Miami          PTSUNNY   83  65  54 NE10G18   30.10F
6HR MIN TEMP:  76; 6HR MAX TEMP:  84;

Detroit        CLOUDY    53  24  32 VRB5      30.46F
6HR MIN TEMP:  38; 6HR MAX TEMP:  53;

Newark         FAIR      59  30  33 NW13G18   30.33F
6HR MIN TEMP:  44; 6HR MAX TEMP:  61;

Laguardia      FAIR      57  23  26 NW13G20   30.32F
6HR MIN TEMP:  43; 6HR MAX TEMP:  57;

J F K          FAIR      58  23  26 NW13      30.34F
6HR MIN TEMP:  44; 6HR MAX TEMP:  59;

Boston Logan   FAIR      56  22  26 NW13G24   30.22
6HR MIN TEMP:  43; 6HR MAX TEMP:  57;

Ft. Lauderdale PTSUNNY   81  66  60 E13       30.10F
6HR MIN TEMP:  77; 6HR MAX TEMP:  82;

Chicago O`Hare CLOUDY    52  25  35 VRB3      30.41F
6HR MIN TEMP:  43; 6HR MAX TEMP:  52;

Chicago Midway CLOUDY    48  26  42 NE9       30.42F
6HR MIN TEMP:  45; 6HR MAX TEMP:  52;

Houston Bush   CLOUDY    71  65  81 SE14      30.01F
6HR MIN TEMP:  62; 6HR MAX TEMP:  72; 6HR PCP: TRACE;

Houston Hobby  CLOUDY    72  68  87 SE13      29.99F
6HR MIN TEMP:  67; 6HR MAX TEMP:  73;

Nashville      FAIR      73  33  23 S8        30.27F
6HR MIN TEMP:  40; 6HR MAX TEMP:  74;

Atlanta        PTSUNNY   69  37  30 E9G17     30.30F
6HR MIN TEMP:  47; 6HR MAX TEMP:  69;


$$

GAZ044-118-TXZ119-213-NCZ071-DCZ001-MDZ014-506-PAZ021-071-NJZ106-
NYZ176-178-MAZ106-OHZ011-021-055-MIZ076-KYZ091-ILZ014-INZ047-
MNZ060-ONZ431-211900-

...Gateway Observations for Savannah International...

CITY           SKY/WX    TMP DP  RH WIND       PRES   REMARKS
Savannah Arpt  PTSUNNY   71  53  52 E17       30.31F
6HR MIN TEMP:  56; 6HR MAX TEMP:  72;

Atlanta        PTSUNNY   69  37  30 E9G17     30.30F
6HR MIN TEMP:  47; 6HR MAX TEMP:  69;

Charlotte      FAIR      67  33  28 S9        30.37F
6HR MIN TEMP:  48; 6HR MAX TEMP:  68;

Dallas DFW     LGT RAIN  59  58  96 S10       29.95S FOG
6HR MIN TEMP:  55; 6HR MAX TEMP:  62; 6HR PCP:  0.11;

Houston Bush   CLOUDY    71  65  81 SE14      30.01F
6HR MIN TEMP:  62; 6HR MAX TEMP:  72; 6HR PCP: TRACE;

Wash National  PTSUNNY   59  28  30 NE7       30.40F
6HR MIN TEMP:  45; 6HR MAX TEMP:  59;

Wash Dulles    PTSUNNY   57  26  30 VRB5      30.40F
6HR MIN TEMP:  39; 6HR MAX TEMP:  57;

Baltimore      PTSUNNY   58  25  28 MISG      30.39F
6HR MIN TEMP:  40; 6HR MAX TEMP:  58;

Philadelphia   PTSUNNY   56  24  29 W7        30.38F
6HR MIN TEMP:  42; 6HR MAX TEMP:  57;

Newark         FAIR      59  30  33 NW13G18   30.33F
6HR MIN TEMP:  44; 6HR MAX TEMP:  61;

Laguardia      FAIR      57  23  26 NW13G20   30.32F
6HR MIN TEMP:  43; 6HR MAX TEMP:  57;

J F K          FAIR      58  23  26 NW13      30.34F
6HR MIN TEMP:  44; 6HR MAX TEMP:  59;

Boston         FAIR      56  22  26 NW13G24   30.22
6HR MIN TEMP:  43; 6HR MAX TEMP:  57;

Pittsburg      CLOUDY    52  24  33 CALM      30.40F
6HR MIN TEMP:  32; 6HR MAX TEMP:  54;

Akron          CLOUDY    53  18  25 CALM      30.42F
6HR MIN TEMP:  35; 6HR MAX TEMP:  54;

Cleveland      CLOUDY    50  21  32 N8        30.47F
6HR MIN TEMP:  32; 6HR MAX TEMP:  52;

Cincinnati     PTSUNNY   60  22  23 N6        30.37F
6HR MIN TEMP:  44; 6HR MAX TEMP:  61;

Columbus       FAIR      54  24  31 E5        30.40F
Detroit        CLOUDY    53  24  32 VRB5      30.46F
6HR MIN TEMP:  38; 6HR MAX TEMP:  53;

Chicago O`Hare CLOUDY    52  25  35 VRB3      30.41F
6HR MIN TEMP:  43; 6HR MAX TEMP:  52;

Minneapolis    FAIR      55  14  19 CALM      30.39F
6HR MIN TEMP:  38; 6HR MAX TEMP:  55;

Indianapolis   PTSUNNY   58  24  27 E10       30.38F
6HR MIN TEMP:  44; 6HR MAX TEMP:  58;

Toronto Canada MOSUNNY   55  21  26 VRB9      30.41F

$$




USA.gov is the U.S. government's official web portal to all federal, state and local government web resources and services.